User: anonymous   Login
Location: Newark
(48.8604°N, 2.3376°E)
Time: 17:24:08
(UTC+00:00)
Language:

ZACube-1 - Orbit

View from above orbital plane
View from above orbital plane
View from above satellite
View from above satellite

Ground track
Ground track

The orbit data is extracted from the following two-line orbital elements,

1 39417U 13066B   21336.88554691  .00000769  00000-0  10139-3 0  9990
2 39417  97.6127 312.6715 0057755 330.3928  29.4019 14.81701205434016
Epoch (UTC): 02 December 2021 21:15:11
Eccentricity: 0.0057755
inclination: 97.6127°
perigee height: 583 km
apogee height: 664 km
right ascension of ascending node: 312.6715°
argument of perigee: 330.3928°
revolutions per day: 14.81701205
mean anomaly at epoch: 29.4019°
orbit number at epoch: 43401

The dashed part of the orbit path shows where the satellite is in the earth's shadow,  

DLR